Temp
6 6 6 6 4 5 5 5 4 2 1 1 1 -0 -1 -2 -2 -3 -3 -3 -3 -3 -4 -4 -4 -4 -5 -5 -6 -8 -8 -8
5 6 6 5 4 5 5 4 3 1 2 2 1 0 -1 -2 -3 -3 -4 -4 -4 -4 -4 -4 -4 -5 -6 -6 -7 -8 -8 -9
5 5 5 4 4 5 4 3 1 0 0 -0 -0 -1 -3 -4 -4 -4 -4 -5 -5 -5 -5 -5 -5 -5 -6 -7 -7 -8 -9 -9
5 5 5 4 4 4 3 1 -1 -0 -0 -0 -0 -1 -3 -3 -3 -4 -5 -5 -5 -5 -5 -6 -6 -6 -8 -8 -7 -7 -8 -9
5 5 4 4 4 3 2 0 -1 -1 -1 -1 -2 -4 -4 -4 -5 -6 -6 -6 -6 -6 -6 -6 -6 -6 -6 -7 -7 -8 -8 -9
5 5 4 3 4 3 1 -1 -1 -1 -1 -2 -3 -4 -4 -5 -5 -6 -5 -5 -6 -6 -6 -6 -6 -6 -6 -7 -7 -8 -8 -8
5 4 4 4 3 2 0 -1 -1 -1 -2 -3 -3 -4 -5 -6 -6 -7 -6 -6 -6 -6 -6 -6 -6 -6 -6 -6 -7 -8 -8 -8
4 4 4 3 2 1 -1 -1 -1 -2 -3 -3 -4 -4 -5 -5 -6 -7 -7 -7 -7 -7 -7 -7 -7 -6 -7 -7 -7 -8 -9 -9
5 4 4 3 2 0 -1 -1 -2 -2 -3 -4 -4 -5 -5 -5 -6 -6 -7 -7 -7 -7 -7 -7 -7 -7 -8 -8 -8 -9 -9 -9
4 3 3 2 1 -0 -1 -2 -2 -3 -4 -4 -5 -5 -5 -5 -6 -6 -6 -7 -7 -7 -7 -7 -7 -7 -8 -8 -9 -9 -10 -10
3 3 3 2 1 -1 -2 -2 -3 -3 -4 -5 -5 -5 -5 -5 -6 -6 -6 -6 -6 -6 -6 -7 -7 -7 -9 -9 -10 -11 -11 -10
4 3 2 1 -0 -1 -2 -2 -3 -4 -4 -5 -5 -5 -5 -5 -6 -6 -6 -6 -6 -6 -7 -7 -7 -8 -9 -10 -11 -11 -12 -12
3 2 2 1 -0 -2 -2 -3 -4 -4 -4 -5 -5 -5 -5 -5 -6 -6 -6 -6 -6 -6 -7 -7 -8 -9 -10 -10 -10 -11 -12 -12
2 2 1 0 -1 -2 -2 -3 -4 -4 -5 -5 -5 -6 -5 -6 -6 -6 -6 -6 -6 -6 -7 -7 -8 -9 -10 -10 -11 -11 -12 -12
2 2 1 -0 -1 -2 -3 -3 -4 -5 -5 -5 -6 -6 -6 -6 -6 -6 -6 -6 -6 -7 -7 -8 -9 -9 -10 -10 -11 -12 -12 -12
2 1 1 -0 -1 -2 -3 -3 -4 -5 -5 -6 -6 -6 -6 -6 -6 -6 -6 -7 -7 -7 -8 -8 -9 -11 -11 -11 -11 -12 -12 -12
2 1 0 -0 -2 -2 -3 -4 -5 -5 -5 -6 -6 -6 -6 -6 -6 -7 -7 -7 -7 -7 -8 -9 -9 -12 -11 -11 -12 -12 -12 -12
2 1 0 -1 -2 -3 -4 -4 -5 -5 -6 -6 -6 -6 -6 -7 -7 -7 -7 -7 -7 -8 -8 -9 -11 -12 -12 -12 -10 -12 -12 -12
2 1 -0 -1 -2 -3 -4 -4 -5 -6 -6 -6 -6 -6 -7 -7 -7 -7 -7 -8 -8 -8 -9 -10 -12 -12 -12 -12 -11 -12 -12 -12
Height
1581 1582 1584 1584 1582 1580 1579 1576 1573 1568 1564 1560 1556 1552 1547 1543 1538 1534 1529 1525 1522 1518 1514 1510 1505 1500 1495 1490 1484 1480 1477 1472
1580 1581 1582 1581 1581 1579 1577 1575 1572 1568 1564 1560 1556 1553 1549 1543 1538 1533 1529 1525 1520 1516 1513 1509 1506 1501 1496 1491 1485 1480 1478 1472
1578 1579 1580 1580 1580 1578 1576 1574 1571 1567 1563 1558 1555 1551 1547 1542 1537 1534 1530 1526 1522 1518 1514 1509 1505 1501 1497 1491 1486 1480 1477 1473
1575 1576 1578 1578 1578 1577 1575 1572 1569 1566 1562 1559 1555 1550 1546 1543 1538 1534 1530 1527 1523 1518 1514 1510 1506 1501 1496 1492 1486 1482 1476 1474
1573 1574 1576 1577 1577 1575 1574 1571 1569 1566 1562 1558 1554 1549 1545 1541 1538 1534 1531 1527 1523 1519 1515 1510 1506 1501 1496 1491 1487 1482 1478 1473
1569 1572 1574 1576 1575 1574 1573 1570 1568 1566 1562 1558 1553 1549 1546 1542 1538 1535 1531 1527 1523 1519 1514 1510 1505 1501 1496 1491 1486 1482 1478 1474
1567 1570 1573 1574 1574 1573 1571 1570 1568 1565 1562 1558 1553 1549 1544 1541 1537 1534 1530 1527 1523 1519 1514 1510 1505 1500 1495 1490 1485 1480 1476 1473
1564 1568 1572 1573 1572 1572 1571 1570 1568 1565 1561 1557 1553 1548 1545 1541 1537 1534 1530 1526 1522 1518 1514 1509 1504 1499 1494 1488 1483 1478 1475 1471
1563 1567 1570 1571 1571 1571 1570 1569 1567 1564 1560 1556 1551 1548 1544 1540 1537 1533 1529 1526 1522 1518 1513 1508 1503 1498 1492 1487 1482 1477 1473 1469
1561 1565 1568 1569 1570 1570 1569 1568 1566 1563 1559 1555 1550 1547 1543 1539 1536 1533 1529 1526 1522 1517 1512 1507 1502 1496 1491 1486 1480 1475 1471 1467
1559 1563 1566 1567 1568 1568 1568 1566 1564 1561 1558 1554 1550 1546 1542 1538 1536 1533 1529 1525 1521 1517 1511 1506 1500 1495 1490 1484 1479 1474 1469 1464
1557 1561 1564 1565 1566 1567 1567 1565 1563 1560 1557 1553 1550 1546 1542 1539 1536 1532 1527 1523 1519 1515 1510 1504 1499 1494 1489 1483 1479 1473 1467 1462
1556 1560 1562 1564 1565 1566 1565 1564 1563 1559 1556 1552 1549 1546 1541 1538 1535 1531 1526 1523 1519 1514 1509 1503 1498 1493 1488 1482 1477 1471 1465 1460
1555 1559 1561 1563 1564 1565 1565 1564 1562 1559 1555 1552 1548 1544 1540 1537 1533 1529 1526 1523 1518 1513 1507 1502 1496 1491 1486 1481 1476 1469 1463 1458
1554 1557 1559 1561 1563 1564 1564 1563 1560 1557 1554 1551 1547 1543 1539 1535 1532 1529 1525 1522 1517 1512 1506 1501 1496 1491 1485 1480 1474 1467 1462 1458
1552 1555 1557 1559 1561 1562 1563 1561 1558 1556 1554 1551 1546 1543 1539 1535 1531 1528 1525 1521 1516 1511 1506 1501 1495 1490 1485 1479 1472 1466 1461 1456
1550 1554 1556 1558 1559 1560 1562 1559 1557 1554 1552 1550 1546 1543 1539 1535 1531 1528 1525 1520 1516 1511 1505 1500 1495 1490 1485 1478 1471 1466 1461 1456
1548 1552 1555 1557 1558 1560 1560 1558 1555 1553 1551 1549 1546 1543 1539 1535 1532 1529 1525 1520 1515 1510 1505 1500 1495 1491 1485 1478 1470 1466 1461 1456
1547 1551 1554 1555 1556 1558 1558 1556 1554 1552 1551 1549 1546 1543 1539 1535 1533 1529 1525 1520 1515 1510 1506 1500 1496 1491 1485 1478 1471 1466 1461 1457
Wind_Speed
9 5 1 6 12 15 18 19 18 18 20 22 23 24 25 25 25 25 25 25 26 27 27 29 31 28 27 29 26 23 19 23
11 6 1 6 10 14 18 17 17 18 21 22 23 24 22 23 23 23 23 25 25 27 28 29 30 29 26 27 26 23 19 23
13 7 1 4 9 14 16 16 17 20 22 23 24 22 19 20 22 23 24 24 25 27 29 30 31 29 25 25 26 25 19 21
15 8 2 3 9 14 15 15 17 19 21 22 23 22 19 20 22 22 22 22 24 26 28 30 31 30 24 23 25 25 24 19
15 9 3 3 8 13 13 15 16 18 22 23 23 21 19 21 20 19 20 22 24 26 28 30 30 30 26 23 23 23 23 20
17 10 5 2 8 11 12 14 15 19 21 22 22 21 21 20 19 19 20 22 24 25 26 29 30 29 27 23 22 21 20 21
17 12 6 2 7 9 11 12 15 18 20 22 22 21 21 19 19 19 21 23 25 26 26 28 29 30 28 25 21 20 20 19
20 13 6 2 5 7 9 12 16 18 20 21 21 21 20 20 20 20 22 23 25 26 27 28 30 29 27 24 22 20 19 18
19 13 6 1 4 6 8 12 15 18 20 20 21 20 20 19 20 21 22 23 24 25 26 28 29 28 25 24 23 19 18 16
20 13 6 1 2 4 7 11 15 17 19 19 20 20 19 20 20 21 21 22 23 24 25 27 29 27 25 25 25 21 19 17
19 13 6 2 1 3 7 10 13 16 18 19 20 19 19 20 20 21 21 21 22 24 25 27 28 26 25 24 24 20 20 19
19 13 8 3 0 2 6 10 13 15 18 19 19 19 19 20 20 22 22 21 23 24 26 27 27 25 26 27 23 23 19 19
19 13 7 3 1 2 6 9 12 15 18 18 18 18 19 20 21 21 21 21 22 24 26 26 25 24 24 25 24 24 19 18
19 14 8 4 1 3 5 8 12 15 17 16 16 18 20 20 20 20 21 22 23 24 26 26 26 24 24 28 26 23 18 17
19 14 9 5 1 2 5 8 11 15 15 14 15 18 20 20 20 20 21 22 23 24 25 25 25 23 28 29 26 20 17 17
19 14 9 6 2 1 4 7 10 13 12 12 15 18 19 19 20 21 22 22 23 24 24 24 25 22 29 29 25 19 17 18
18 13 9 5 2 1 4 6 10 11 10 12 14 17 19 19 20 21 22 22 23 23 23 24 24 21 27 28 25 18 17 18
18 13 9 5 3 2 3 6 9 8 10 11 13 17 18 20 20 22 23 23 23 23 23 23 23 23 28 30 25 19 17 18
17 13 9 6 3 3 3 6 6 7 10 11 13 16 18 19 20 22 24 23 23 23 22 23 21 23 28 30 26 20 18 18
Wind_Direction
172 156 41 9 21 6 1 359 357 6 7 4 2 359 357 357 1 4 3 4 7 8 9 6 4 4 1 0 0 1 354 347
179 180 234 22 7 360 359 357 0 8 6 4 1 358 355 359 5 4 6 7 7 8 6 5 5 2 0 1 359 359 359 353
188 190 189 8 358 357 359 356 8 8 4 3 1 359 359 4 7 6 7 7 7 9 7 5 3 1 359 359 1 359 359 360
192 188 189 348 358 355 356 2 10 3 1 359 357 359 2 2 5 5 5 5 6 7 5 5 2 1 356 356 359 1 358 0
196 189 195 343 353 356 354 8 5 360 0 357 360 3 3 2 3 4 4 4 3 3 2 2 1 359 356 352 354 357 356 353
195 189 196 335 351 353 359 9 2 1 357 358 1 3 2 1 0 3 4 5 3 1 0 359 360 358 354 350 349 350 352 351
192 189 195 322 349 352 6 7 1 359 357 360 0 1 2 360 360 0 1 2 2 0 359 358 357 356 354 352 345 344 343 345
190 189 188 306 343 358 9 3 359 358 359 360 2 2 1 0 1 1 359 358 358 356 354 355 356 354 352 352 347 340 339 338
186 184 189 262 345 5 4 360 359 1 359 1 3 2 3 3 2 360 357 355 355 352 351 350 353 351 351 351 350 342 337 333
185 181 185 211 356 5 359 359 1 1 1 2 3 2 3 4 360 356 355 354 353 351 349 349 351 351 351 352 352 348 343 336
181 180 182 175 353 3 356 1 3 1 1 1 1 1 2 2 356 353 354 353 353 350 350 349 350 351 351 354 352 347 344 342
180 179 180 178 181 348 359 2 1 359 359 359 0 2 1 358 354 354 356 355 353 351 350 350 351 353 355 358 351 346 341 341
179 180 179 183 179 350 4 357 356 356 357 358 1 1 0 359 358 359 358 356 355 351 352 352 354 356 360 2 347 342 341 341
179 182 183 188 193 6 354 352 352 353 353 358 3 3 4 4 3 3 360 356 355 354 354 355 358 0 4 9 344 342 343 344
181 183 187 185 187 346 347 343 349 349 354 360 7 7 6 6 5 4 0 357 356 356 357 357 359 4 16 353 346 347 347 347
185 185 186 181 190 317 329 337 346 349 356 6 10 7 7 7 7 5 2 360 359 357 358 0 1 9 13 352 352 350 351 348
185 185 182 180 186 291 310 333 344 354 6 10 9 8 8 9 9 7 4 2 1 360 1 3 4 6 8 359 357 356 357 354
185 185 179 181 182 247 299 333 350 8 14 11 11 10 10 12 10 7 6 5 4 3 5 5 7 7 9 2 5 4 2 0
183 181 181 179 189 213 302 342 7 21 17 13 12 11 13 13 10 8 7 6 5 5 8 7 8 8 12 5 10 8 5 4